DECAYED

STARLINK-3053, 49149 (Decayed)

Orbit data source: Space-Track

STARLINK-3053, 49149 was a payload satellite owned by SpaceX/Seattle (US) in LEO that was launched on Tue, 14 Sep 2021 UTC via an FALCON 9 launch vehicle from the Air Force Western Test Range (AFWTR). Payload-class satellites include a variety of spacecraft equipped with specific instruments for various scientific and technological missions. These include communications satellites like Starlink; space stations such as the ISS; scientific satellites like the Hubble; Earth observation satellites from companies like Planet Labs, Umbra, and HawkEye 360; GPS; miniature CubeSats for education and research; and military/defense satellites.

Not visible in the next 10 days
Identifier
49149, 2021-082V
Orbit
Decayed
Country
Flag of USUS
Related business
Manufacturer
SpaceX/Seattle
Mission
Decayed Commercial Communications
Bus & Motor
STARLINK, Unknown motor
Mass
297 kg wet, ~275 kg dry
Launch date (UTC)
2021-09-14 (5 years ago)
Launch vehicle
FALCON 9
Launch site
Air Force Western Test Range (AFWTR)
Object type
Payload
Rocket body
Debris
Shape & HBR
Box + 1 Pan, 10.1 m
Radar Cross Section
13.562 m², Large (>1 m²)

Expand to show TLE details & history
Last TLE update: 1 year ago

TLE from 1 year ago
0 STARLINK-3053
1 49149U 21082V   25100.85341221  .11614728  44404-5  28467-3 0  9995
2 49149  69.9857  29.7419 0010188 247.7807 197.2384 16.45312138197902
Epoch: 2025-04-10T20:28Z
TLE epoch observation values (Epoch: 2025-04-10T20:28:54.814Z)
Latitude
69.49905°
Longitude
-41.20557°
Altitude
169.435 km
Speed
7.808 km/s
True Right ascension
07h 01m 22s
True Declination
69° 22' 33"
Sunlit
Object was in daylight at epoch
Visualization orbit readout
Latitude
Unknown
Longitude
Unknown
Altitude
Unknown
Speed
Unknown
Apparent Right ascension
Unknown
Apparent Declination
Unknown
Sunlit
N/A
Visualization observer readout
Local Sidereal Time
18:20:28
Azimuth
Unknown
Elevation
Unknown
Doppler factor
Unknown
Orbital elements
Apogee altitude
156.177 km
Perigee altitude
142.876 km
Semi-major axis
6,527.664 km
Eccentricity
0.00102
Inclination
69.9857°
RAAN
29.7419°
Arg. of periapsis
247.7807°
True anomaly
197.20384°
Mean anomaly
197.2384°
Eccentric anomaly
197.22112°
Mean motion
4.11535 °/min
Orbital period
87.48 mins
BSTAR
0.00028467
Loading maneuver chart data...
Computing Atmospheric mass density...
Loading historical data...
Loading historical data...
Loading historical data...
Loading historical data...
Loading historical data...
Loading historical data...
Loading historical data...

Documentation

Showing up to 5 results
|